Location: Brachbach
(49.1847°N, 9.7240°E)
Time: 10:39:42
(UTC+00:00)

COSMOS 860 DEB - Pass Details

Date: 11 October 2024
Orbit: 890 x 988 km, 64.7° (Epoch: 09 November)

Event Time Altitude Azimuth Distance (km) Brightness Sun altitude
Rises 20:28:13 0° 315° (NW) 3,675 ? -36.6°
Reaches altitude 10° 20:31:01 10° 306° (NW) 2,734 ? -36.9°
Enters shadow 20:35:45 31° 261° (W) 1,650 ? -37.5°
